Wetterdaten: Mittwoch, 08.01.2014
Datum Zeit Temperatur Luftfeuchte Luftdruck Regen Wind Richtung Richtung Taupunkt Windchill Windben
08.01.2014 00:00 3,4 C 77 % 1020,8 hPa 0,0 l/m 1,0 km/h (0 Bft) N-NW 337 -0,2 C 3,7 C 3,4 km/h (1 Bft)
08.01.2014 00:05 3,1 C 77 % 1020,9 hPa 0,0 l/m 1,8 km/h (1 Bft) S-SO 157 -0,5 C 3,5 C 2,7 km/h (1 Bft)
08.01.2014 00:10 3,5 C 78 % 1020,9 hPa 0,0 l/m 2,4 km/h (1 Bft) NO 45 0,0 C 3,4 C 0,0 km/h (0 Bft)
08.01.2014 00:13 3,2 C 78 % 1020,9 hPa 0,0 l/m 2,3 km/h (1 Bft) O-NO 67 -0,3 C 3,4 C 4,8 km/h (1 Bft)
08.01.2014 00:15 3,2 C 78 % 1020,9 hPa 0,0 l/m 2,3 km/h (1 Bft) O-NO 67 -0,3 C 3,4 C 4,8 km/h (1 Bft)
08.01.2014 00:20 3,3 C 78 % 1020,9 hPa 0,0 l/m 2,4 km/h (1 Bft) N-NO 22 -0,2 C 3,4 C 7,1 km/h (2 Bft)
08.01.2014 00:25 2,8 C 78 % 1021,0 hPa 0,0 l/m 2,3 km/h (1 Bft) W-NW 292 -0,6 C 3,3 C 0,0 km/h (0 Bft)
08.01.2014 00:30 3,0 C 79 % 1021,0 hPa 0,0 l/m 1,4 km/h (1 Bft) O-SO 112 -0,3 C 2,8 C 0,0 km/h (0 Bft)
08.01.2014 00:35 2,5 C 79 % 1021,0 hPa 0,0 l/m 1,0 km/h (0 Bft) O-SO 112 -0,8 C 2,7 C 0,0 km/h (0 Bft)
08.01.2014 00:40 3,2 C 79 % 1021,0 hPa 0,0 l/m 1,1 km/h (1 Bft) SO 135 -0,1 C 2,7 C 1,6 km/h (1 Bft)
08.01.2014 00:45 2,5 C 79 % 1021,2 hPa 0,0 l/m 1,1 km/h (1 Bft) O 90 -0,8 C 2,6 C 0,0 km/h (0 Bft)
08.01.2014 00:50 2,7 C 80 % 1021,2 hPa 0,0 l/m 0,3 km/h (0 Bft) O 90 -0,4 C 2,4 C 0,0 km/h (0 Bft)
08.01.2014 00:55 2,3 C 79 % 1021,2 hPa 0,0 l/m 0,2 km/h (0 Bft) O 90 -1,0 C 2,2 C 0,0 km/h (0 Bft)
08.01.2014 01:00 2,0 C 80 % 1021,2 hPa 0,0 l/m 0,0 km/h (0 Bft) O 90 -1,1 C 1,9 C 0,0 km/h (0 Bft)
08.01.2014 01:05 2,6 C 82 % 1021,1 hPa 0,0 l/m 0,3 km/h (0 Bft) N-NO 22 -0,2 C 1,8 C 0,0 km/h (0 Bft)
08.01.2014 01:10 2,1 C 82 % 1021,1 hPa 0,0 l/m 0,3 km/h (0 Bft) N-NO 22 -0,6 C 1,8 C 0,0 km/h (0 Bft)
08.01.2014 01:15 1,8 C 82 % 1021,1 hPa 0,0 l/m 0,3 km/h (0 Bft) N-NO 22 -0,9 C 1,8 C 0,0 km/h (0 Bft)
08.01.2014 01:20 1,6 C 82 % 1021,1 hPa 0,0 l/m 0,0 km/h (0 Bft) N-NO 22 -1,1 C 1,7 C 0,0 km/h (0 Bft)
08.01.2014 01:25 1,4 C 82 % 1021,1 hPa 0,0 l/m 0,2 km/h (0 Bft) NO 45 -1,3 C 1,5 C 0,0 km/h (0 Bft)
08.01.2014 01:30 1,1 C 82 % 1021,1 hPa 0,0 l/m 0,2 km/h (0 Bft) O-NO 67 -1,6 C 1,2 C 0,0 km/h (0 Bft)
08.01.2014 01:35 1,5 C 83 % 1021,1 hPa 0,0 l/m 0,3 km/h (0 Bft) NO 45 -1,1 C 1,1 C 2,3 km/h (1 Bft)
08.01.2014 01:40 1,5 C 83 % 1021,1 hPa 0,0 l/m 0,5 km/h (0 Bft) O 90 -1,1 C 1,2 C 0,0 km/h (0 Bft)
08.01.2014 01:45 1,1 C 83 % 1021,1 hPa 0,0 l/m 0,3 km/h (0 Bft) S-SW 202 -1,5 C 1,1 C 1,6 km/h (1 Bft)
08.01.2014 01:50 1,2 C 85 % 1021,1 hPa 0,0 l/m 0,3 km/h (0 Bft) O-SO 112 -1,0 C 1,0 C 2,1 km/h (1 Bft)
08.01.2014 01:55 1,4 C 86 % 1021,1 hPa 0,0 l/m 1,1 km/h (1 Bft) N 360 -0,7 C 0,9 C 0,0 km/h (0 Bft)
08.01.2014 02:00 1,1 C 86 % 1021,1 hPa 0,0 l/m 1,0 km/h (0 Bft) NO 45 -1,0 C 0,8 C 0,0 km/h (0 Bft)
08.01.2014 02:05 0,8 C 85 % 1021,3 hPa 0,0 l/m 0,2 km/h (0 Bft) NO 45 -1,4 C 0,7 C 0,0 km/h (0 Bft)
08.01.2014 02:10 1,0 C 85 % 1021,3 hPa 0,0 l/m 0,2 km/h (0 Bft) NO 45 -1,2 C 0,8 C 0,0 km/h (0 Bft)
08.01.2014 02:15 0,8 C 86 % 1021,3 hPa 0,0 l/m 0,2 km/h (0 Bft) N-NO 22 -1,3 C 0,7 C 0,0 km/h (0 Bft)
08.01.2014 02:20 0,7 C 86 % 1021,3 hPa 0,0 l/m 0,0 km/h (0 Bft) N-NO 22 -1,4 C 0,6 C 0,0 km/h (0 Bft)
08.01.2014 02:25 0,9 C 86 % 1021,6 hPa 0,0 l/m 0,0 km/h (0 Bft) NO 45 -1,2 C 0,6 C 0,0 km/h (0 Bft)
08.01.2014 02:30 0,6 C 86 % 1021,6 hPa 0,0 l/m 0,0 km/h (0 Bft) O 90 -1,5 C 0,6 C 0,0 km/h (0 Bft)
08.01.2014 02:35 0,3 C 85 % 1021,6 hPa 0,0 l/m 0,0 km/h (0 Bft) NO 45 -1,9 C 0,5 C 1,9 km/h (1 Bft)
08.01.2014 02:40 1,2 C 86 % 1021,6 hPa 0,0 l/m 0,8 km/h (0 Bft) N-NO 22 -0,9 C 0,6 C 0,0 km/h (0 Bft)
08.01.2014 02:45 1,2 C 86 % 1021,9 hPa 0,0 l/m 1,0 km/h (0 Bft) SO 135 -0,9 C 0,9 C 2,1 km/h (1 Bft)
08.01.2014 02:50 1,0 C 86 % 1021,9 hPa 0,0 l/m 0,2 km/h (0 Bft) O-SO 112 -1,1 C 1,2 C 0,0 km/h (0 Bft)
08.01.2014 02:55 1,2 C 86 % 1021,9 hPa 0,0 l/m 0,2 km/h (0 Bft) O-SO 112 -0,9 C 1,2 C 0,0 km/h (0 Bft)
08.01.2014 03:00 1,4 C 86 % 1021,9 hPa 0,0 l/m 0,0 km/h (0 Bft) SO 135 -0,7 C 1,4 C 0,0 km/h (0 Bft)
08.01.2014 03:05 1,4 C 86 % 1022,2 hPa 0,0 l/m 0,5 km/h (0 Bft) S 180 -0,7 C 1,6 C 2,1 km/h (1 Bft)
08.01.2014 03:10 1,5 C 87 % 1022,2 hPa 0,0 l/m 1,4 km/h (1 Bft) O 90 -0,4 C 1,7 C 0,0 km/h (0 Bft)
08.01.2014 03:15 1,4 C 86 % 1022,2 hPa 0,0 l/m 1,8 km/h (1 Bft) S-SW 202 -0,7 C 1,9 C 4,3 km/h (1 Bft)
08.01.2014 03:20 1,3 C 86 % 1022,2 hPa 0,0 l/m 0,8 km/h (0 Bft) NO 45 -0,8 C 1,9 C 0,0 km/h (0 Bft)
08.01.2014 03:25 1,3 C 86 % 1022,1 hPa 0,0 l/m 0,2 km/h (0 Bft) NO 45 -0,8 C 1,9 C 0,0 km/h (0 Bft)
08.01.2014 03:30 1,6 C 87 % 1022,1 hPa 0,0 l/m 0,6 km/h (0 Bft) NO 45 -0,3 C 1,9 C 0,0 km/h (0 Bft)
08.01.2014 03:35 1,9 C 87 % 1022,1 hPa 0,0 l/m 1,3 km/h (1 Bft) N-NW 337 -0,0 C 2,1 C 3,9 km/h (1 Bft)
08.01.2014 03:40 2,0 C 86 % 1022,1 hPa 0,0 l/m 1,1 km/h (1 Bft) N-NW 337 -0,1 C 2,2 C 0,0 km/h (0 Bft)
08.01.2014 03:45 2,0 C 86 % 1022,0 hPa 0,0 l/m 1,0 km/h (0 Bft) N-NW 337 -0,1 C 2,1 C 0,0 km/h (0 Bft)
08.01.2014 03:50 2,1 C 86 % 1022,0 hPa 0,0 l/m 0,5 km/h (0 Bft) NO 45 0,0 C 2,1 C 1,9 km/h (1 Bft)
08.01.2014 03:55 2,3 C 86 % 1022,0 hPa 0,0 l/m 0,5 km/h (0 Bft) N-NO 22 0,2 C 2,2 C 0,0 km/h (0 Bft)
08.01.2014 04:00 1,9 C 86 % 1022,0 hPa 0,0 l/m 0,3 km/h (0 Bft) O 90 -0,2 C 2,3 C 0,0 km/h (0 Bft)
08.01.2014 04:05 1,8 C 86 % 1022,2 hPa 0,0 l/m 0,2 km/h (0 Bft) O 90 -0,3 C 2,3 C 2,3 km/h (1 Bft)
08.01.2014 04:10 2,1 C 85 % 1022,2 hPa 0,0 l/m 0,2 km/h (0 Bft) N 360 -0,2 C 2,3 C 0,0 km/h (0 Bft)
08.01.2014 04:15 2,3 C 86 % 1022,2 hPa 0,0 l/m 0,3 km/h (0 Bft) O 90 0,2 C 2,3 C 0,0 km/h (0 Bft)
08.01.2014 04:20 2,2 C 85 % 1022,2 hPa 0,0 l/m 0,2 km/h (0 Bft) NO 45 -0,1 C 2,4 C 0,0 km/h (0 Bft)
08.01.2014 04:25 2,0 C 85 % 1022,2 hPa 0,0 l/m 0,2 km/h (0 Bft) O 90 -0,3 C 2,5 C 0,0 km/h (0 Bft)
08.01.2014 04:30 2,1 C 85 % 1022,2 hPa 0,0 l/m 0,0 km/h (0 Bft) N-NO 22 -0,2 C 2,3 C 0,0 km/h (0 Bft)
08.01.2014 04:35 1,9 C 85 % 1022,2 hPa 0,0 l/m 0,0 km/h (0 Bft) O 90 -0,3 C 2,2 C 0,0 km/h (0 Bft)
08.01.2014 04:40 1,9 C 85 % 1022,2 hPa 0,0 l/m 0,5 km/h (0 Bft) NO 45 -0,3 C 2,0 C 7,4 km/h (2 Bft)
08.01.2014 04:45 2,0 C 85 % 1022,6 hPa 0,0 l/m 1,0 km/h (0 Bft) O 90 -0,3 C 2,1 C 5,3 km/h (1 Bft)
08.01.2014 04:50 2,4 C 85 % 1022,6 hPa 0,0 l/m 2,3 km/h (1 Bft) W-NW 292 0,1 C 2,6 C 0,0 km/h (0 Bft)
08.01.2014 04:55 2,2 C 84 % 1022,6 hPa 0,0 l/m 1,6 km/h (1 Bft) W-NW 292 -0,2 C 2,6 C 0,0 km/h (0 Bft)
08.01.2014 05:00 2,3 C 84 % 1022,6 hPa 0,0 l/m 0,0 km/h (0 Bft) W-NW 292 -0,1 C 2,5 C 0,0 km/h (0 Bft)
08.01.2014 05:05 2,3 C 85 % 1022,4 hPa 0,0 l/m 0,2 km/h (0 Bft) N 360 0,0 C 2,5 C 0,0 km/h (0 Bft)
08.01.2014 05:10 2,3 C 84 % 1022,4 hPa 0,0 l/m 0,6 km/h (0 Bft) NO 45 -0,1 C 2,6 C 0,0 km/h (0 Bft)
08.01.2014 05:15 2,1 C 84 % 1022,4 hPa 0,0 l/m 1,9 km/h (1 Bft) S-SO 157 -0,3 C 2,5 C 10,0 km/h (2 Bft)
08.01.2014 05:20 4,0 C 83 % 1022,4 hPa 0,0 l/m 4,8 km/h (1 Bft) O 90 1,4 C 2,4 C 10,8 km/h (2 Bft)
08.01.2014 05:25 4,4 C 82 % 1022,9 hPa 0,0 l/m 5,8 km/h (2 Bft) SO 135 1,6 C 2,9 C 8,4 km/h (2 Bft)
08.01.2014 05:30 4,9 C 78 % 1022,9 hPa 0,0 l/m 4,7 km/h (1 Bft) O 90 1,4 C 4,3 C 13,5 km/h (3 Bft)
08.01.2014 05:35 5,3 C 76 % 1022,9 hPa 0,0 l/m 6,3 km/h (2 Bft) O-SO 112 1,4 C 4,4 C 9,2 km/h (2 Bft)
08.01.2014 05:40 5,1 C 75 % 1022,9 hPa 0,0 l/m 6,9 km/h (2 Bft) O-NO 67 1,0 C 4,3 C 6,4 km/h (2 Bft)
08.01.2014 05:45 5,5 C 73 % 1022,6 hPa 0,0 l/m 6,6 km/h (2 Bft) O-SO 112 1,1 C 4,7 C 5,5 km/h (1 Bft)
08.01.2014 05:50 5,0 C 74 % 1022,6 hPa 0,0 l/m 5,0 km/h (1 Bft) O-SO 112 0,8 C 5,3 C 5,8 km/h (2 Bft)
08.01.2014 05:55 4,8 C 75 % 1022,6 hPa 0,0 l/m 4,3 km/h (1 Bft) O 90 0,8 C 5,4 C 5,3 km/h (1 Bft)
08.01.2014 06:00 5,2 C 75 % 1022,6 hPa 0,0 l/m 5,0 km/h (1 Bft) O-NO 67 1,1 C 5,3 C 5,5 km/h (1 Bft)
08.01.2014 06:05 5,1 C 74 % 1022,8 hPa 0,0 l/m 4,3 km/h (1 Bft) O 90 0,9 C 5,6 C 4,2 km/h (1 Bft)
08.01.2014 06:10 4,9 C 75 % 1022,8 hPa 0,0 l/m 2,7 km/h (1 Bft) O-NO 67 0,8 C 6,1 C 0,0 km/h (0 Bft)
08.01.2014 06:13 4,3 C 75 % 1022,8 hPa 0,0 l/m 1,8 km/h (1 Bft) O 90 0,3 C 5,9 C 4,0 km/h (1 Bft)
08.01.2014 06:15 4,3 C 75 % 1022,8 hPa 0,0 l/m 1,8 km/h (1 Bft) O 90 0,3 C 5,9 C 4,0 km/h (1 Bft)
08.01.2014 06:20 4,6 C 77 % 1022,8 hPa 0,0 l/m 0,6 km/h (0 Bft) NO 45 0,9 C 5,5 C 0,0 km/h (0 Bft)
08.01.2014 06:25 4,2 C 77 % 1022,9 hPa 0,0 l/m 0,8 km/h (0 Bft) S-SW 202 0,5 C 5,4 C 6,0 km/h (2 Bft)
08.01.2014 06:30 3,9 C 77 % 1022,9 hPa 0,0 l/m 0,5 km/h (0 Bft) S-SW 202 0,2 C 5,0 C 0,0 km/h (0 Bft)
08.01.2014 06:35 3,6 C 77 % 1022,9 hPa 0,0 l/m 0,6 km/h (0 Bft) S-SW 202 -0,0 C 4,5 C 0,0 km/h (0 Bft)
08.01.2014 06:40 3,1 C 78 % 1022,9 hPa 0,0 l/m 1,0 km/h (0 Bft) S 180 -0,4 C 4,0 C 2,4 km/h (1 Bft)
08.01.2014 06:45 3,3 C 80 % 1023,2 hPa 0,0 l/m 1,3 km/h (1 Bft) S 180 0,2 C 3,8 C 2,9 km/h (1 Bft)
08.01.2014 06:50 3,3 C 80 % 1023,2 hPa 0,0 l/m 0,8 km/h (0 Bft) S 180 0,2 C 3,9 C 0,0 km/h (0 Bft)
08.01.2014 06:55 3,2 C 80 % 1023,2 hPa 0,0 l/m 0,3 km/h (0 Bft) S-SW 202 0,1 C 3,9 C 0,0 km/h (0 Bft)
08.01.2014 07:00 3,4 C 81 % 1023,2 hPa 0,0 l/m 0,5 km/h (0 Bft) N-NO 22 0,5 C 3,8 C 0,0 km/h (0 Bft)
08.01.2014 07:05 3,5 C 81 % 1023,3 hPa 0,0 l/m 1,0 km/h (0 Bft) NO 45 0,6 C 3,9 C 1,9 km/h (1 Bft)
08.01.2014 07:10 3,6 C 81 % 1023,3 hPa 0,0 l/m 1,0 km/h (0 Bft) W 270 0,7 C 4,2 C 0,0 km/h (0 Bft)
08.01.2014 07:15 3,4 C 80 % 1023,3 hPa 0,0 l/m 0,6 km/h (0 Bft) W 270 0,3 C 4,2 C 0,0 km/h (0 Bft)
08.01.2014 07:20 3,4 C 80 % 1023,3 hPa 0,0 l/m 0,2 km/h (0 Bft) W 270 0,3 C 4,2 C 0,0 km/h (0 Bft)
08.01.2014 07:25 3,5 C 80 % 1023,8 hPa 0,0 l/m 0,3 km/h (0 Bft) NO 45 0,4 C 4,2 C 0,0 km/h (0 Bft)
08.01.2014 07:30 4,4 C 82 % 1023,8 hPa 0,0 l/m 2,3 km/h (1 Bft) O 90 1,6 C 4,3 C 7,2 km/h (2 Bft)
08.01.2014 07:35 4,5 C 83 % 1023,8 hPa 0,0 l/m 3,7 km/h (1 Bft) O-SO 112 1,9 C 4,2 C 6,1 km/h (2 Bft)
08.01.2014 07:40 5,0 C 85 % 1023,8 hPa 0,0 l/m 5,5 km/h (1 Bft) O-SO 112 2,7 C 4,2 C 6,1 km/h (2 Bft)
08.01.2014 07:45 4,9 C 86 % 1023,8 hPa 0,0 l/m 5,6 km/h (1 Bft) O-SO 112 2,8 C 4,4 C 6,4 km/h (2 Bft)
08.01.2014 07:50 5,2 C 86 % 1023,8 hPa 0,0 l/m 5,0 km/h (1 Bft) O 90 3,1 C 4,9 C 0,0 km/h (0 Bft)
08.01.2014 07:55 5,0 C 86 % 1023,8 hPa 0,0 l/m 3,7 km/h (1 Bft) O 90 2,9 C 5,7 C 2,7 km/h (1 Bft)
08.01.2014 08:00 4,7 C 87 % 1023,8 hPa 0,0 l/m 1,9 km/h (1 Bft) N-NO 22 2,7 C 5,7 C 3,5 km/h (1 Bft)
08.01.2014 08:05 4,5 C 87 % 1023,8 hPa 0,0 l/m 1,4 km/h (1 Bft) NO 45 2,5 C 5,4 C 0,0 km/h (0 Bft)
08.01.2014 08:10 3,9 C 87 % 1023,8 hPa 0,0 l/m 1,0 km/h (0 Bft) W-NW 292 1,9 C 4,9 C 0,0 km/h (0 Bft)
08.01.2014 08:15 3,8 C 87 % 1023,8 hPa 0,0 l/m 1,3 km/h (1 Bft) W-NW 292 1,8 C 4,2 C 0,0 km/h (0 Bft)
08.01.2014 08:20 3,2 C 88 % 1023,8 hPa 0,0 l/m 1,3 km/h (1 Bft) NO 45 1,4 C 3,7 C 2,6 km/h (1 Bft)
08.01.2014 08:25 3,1 C 88 % 1023,9 hPa 0,0 l/m 0,5 km/h (0 Bft) NO 45 1,3 C 3,4 C 0,0 km/h (0 Bft)
08.01.2014 08:30 2,8 C 89 % 1023,9 hPa 0,0 l/m 0,3 km/h (0 Bft) W-NW 292 1,2 C 3,2 C 0,0 km/h (0 Bft)
08.01.2014 08:35 2,6 C 89 % 1023,9 hPa 0,0 l/m 0,2 km/h (0 Bft) N-NO 22 1,0 C 3,0 C 0,0 km/h (0 Bft)
08.01.2014 08:40 2,6 C 89 % 1023,9 hPa 0,0 l/m 0,2 km/h (0 Bft) NO 45 1,0 C 2,8 C 2,4 km/h (1 Bft)
08.01.2014 08:45 2,7 C 89 % 1024,1 hPa 0,0 l/m 0,6 km/h (0 Bft) N 360 1,1 C 2,8 C 3,2 km/h (1 Bft)
08.01.2014 08:50 2,7 C 91 % 1024,1 hPa 0,0 l/m 1,0 km/h (0 Bft) N-NO 22 1,4 C 2,9 C 0,0 km/h (0 Bft)
08.01.2014 08:55 2,8 C 91 % 1024,1 hPa 0,0 l/m 1,4 km/h (1 Bft) NO 45 1,5 C 2,9 C 3,4 km/h (1 Bft)
08.01.2014 09:00 2,9 C 91 % 1024,1 hPa 0,0 l/m 1,8 km/h (1 Bft) W-SW 247 1,6 C 3,3 C 2,7 km/h (1 Bft)
08.01.2014 09:05 2,6 C 91 % 1024,0 hPa 0,0 l/m 1,3 km/h (1 Bft) S-SW 202 1,3 C 3,1 C 0,0 km/h (0 Bft)
08.01.2014 09:10 2,7 C 92 % 1024,0 hPa 0,0 l/m 0,5 km/h (0 Bft) NO 45 1,5 C 3,0 C 3,9 km/h (1 Bft)
08.01.2014 09:15 2,9 C 92 % 1024,0 hPa 0,0 l/m 1,3 km/h (1 Bft) O-SO 112 1,7 C 3,0 C 1,6 km/h (1 Bft)
08.01.2014 09:20 3,4 C 91 % 1024,0 hPa 0,0 l/m 2,6 km/h (1 Bft) S-SO 157 2,1 C 3,2 C 1,6 km/h (1 Bft)
08.01.2014 09:25 3,1 C 91 % 1024,3 hPa 0,0 l/m 1,4 km/h (1 Bft) S-SO 157 1,8 C 3,4 C 0,0 km/h (0 Bft)
08.01.2014 09:30 3,5 C 91 % 1024,3 hPa 0,0 l/m 1,0 km/h (0 Bft) NO 45 2,2 C 3,4 C 0,0 km/h (0 Bft)
08.01.2014 09:35 4,5 C 91 % 1024,3 hPa 0,0 l/m 1,6 km/h (1 Bft) NO 45 3,2 C 3,6 C 4,7 km/h (1 Bft)
08.01.2014 09:40 5,0 C 91 % 1024,3 hPa 0,0 l/m 2,6 km/h (1 Bft) O-NO 67 3,7 C 4,1 C 0,0 km/h (0 Bft)
08.01.2014 09:45 4,2 C 91 % 1024,4 hPa 0,0 l/m 2,1 km/h (1 Bft) SW 225 2,9 C 4,2 C 1,9 km/h (1 Bft)
08.01.2014 09:50 3,8 C 90 % 1024,4 hPa 0,0 l/m 0,8 km/h (0 Bft) O-NO 67 2,3 C 4,2 C 0,0 km/h (0 Bft)
08.01.2014 09:55 3,4 C 90 % 1024,4 hPa 0,0 l/m 1,0 km/h (0 Bft) O-SO 112 1,9 C 4,2 C 0,0 km/h (0 Bft)
08.01.2014 10:00 3,7 C 90 % 1024,4 hPa 0,0 l/m 1,0 km/h (0 Bft) O-NO 67 2,2 C 4,2 C 0,0 km/h (0 Bft)
08.01.2014 10:05 4,5 C 91 % 1024,7 hPa 0,0 l/m 1,3 km/h (1 Bft) O-NO 67 3,2 C 4,3 C 4,5 km/h (1 Bft)
08.01.2014 10:10 5,3 C 91 % 1024,7 hPa 0,0 l/m 1,4 km/h (1 Bft) N-NO 22 4,0 C 5,1 C 0,0 km/h (0 Bft)
08.01.2014 10:15 4,9 C 91 % 1024,7 hPa 0,0 l/m 1,1 km/h (1 Bft) O-SO 112 3,6 C 5,5 C 0,0 km/h (0 Bft)
08.01.2014 10:20 6,6 C 90 % 1024,7 hPa 0,0 l/m 1,1 km/h (1 Bft) O-SO 112 5,1 C 6,5 C 0,0 km/h (0 Bft)
08.01.2014 10:25 6,5 C 89 % 1024,8 hPa 0,0 l/m 1,3 km/h (1 Bft) S-SW 202 4,8 C 7,2 C 2,4 km/h (1 Bft)
08.01.2014 10:30 5,5 C 89 % 1024,8 hPa 0,0 l/m 0,5 km/h (0 Bft) S 180 3,8 C 7,2 C 0,0 km/h (0 Bft)
08.01.2014 10:35 5,2 C 89 % 1024,8 hPa 0,0 l/m 0,3 km/h (0 Bft) S 180 3,5 C 7,0 C 0,0 km/h (0 Bft)
08.01.2014 10:40 5,3 C 89 % 1024,8 hPa 0,0 l/m 0,0 km/h (0 Bft) O-SO 112 3,6 C 6,7 C 0,0 km/h (0 Bft)
08.01.2014 10:45 5,9 C 89 % 1025,1 hPa 0,0 l/m 0,3 km/h (0 Bft) NO 45 4,2 C 6,6 C 2,6 km/h (1 Bft)
08.01.2014 10:50 6,4 C 88 % 1025,1 hPa 0,0 l/m 0,8 km/h (0 Bft) N 360 4,6 C 7,2 C 3,1 km/h (1 Bft)
08.01.2014 10:55 6,3 C 88 % 1025,1 hPa 0,0 l/m 0,3 km/h (0 Bft) N-NW 337 4,5 C 7,5 C 0,0 km/h (0 Bft)
08.01.2014 11:00 6,3 C 88 % 1025,1 hPa 0,0 l/m 0,5 km/h (0 Bft) NO 45 4,5 C 7,7 C 0,0 km/h (0 Bft)
08.01.2014 11:05 6,3 C 88 % 1025,2 hPa 0,0 l/m 0,3 km/h (0 Bft) NO 45 4,5 C 7,8 C 0,0 km/h (0 Bft)
08.01.2014 11:10 6,6 C 88 % 1025,2 hPa 0,0 l/m 0,0 km/h (0 Bft) NO 45 4,8 C 7,9 C 0,0 km/h (0 Bft)
08.01.2014 11:14 6,9 C 88 % 1025,2 hPa 0,0 l/m 0,2 km/h (0 Bft) O 90 5,1 C 8,2 C 0,0 km/h (0 Bft)
08.01.2014 11:15 6,9 C 88 % 1025,2 hPa 0,0 l/m 0,2 km/h (0 Bft) O 90 5,1 C 8,2 C 0,0 km/h (0 Bft)
08.01.2014 11:20 8,0 C 86 % 1025,2 hPa 0,0 l/m 0,5 km/h (0 Bft) S-SO 157 5,8 C 8,8 C 0,0 km/h (0 Bft)
08.01.2014 11:25 7,3 C 86 % 1025,1 hPa 0,0 l/m 0,5 km/h (0 Bft) S-SO 157 5,1 C 9,0 C 0,0 km/h (0 Bft)
08.01.2014 11:30 7,1 C 86 % 1025,1 hPa 0,0 l/m 0,0 km/h (0 Bft) O-SO 112 4,9 C 9,1 C 0,0 km/h (0 Bft)
08.01.2014 11:35 6,9 C 86 % 1025,1 hPa 0,0 l/m 0,0 km/h (0 Bft) SO 135 4,7 C 9,0 C 0,0 km/h (0 Bft)
08.01.2014 11:40 7,0 C 86 % 1025,1 hPa 0,0 l/m 0,0 km/h (0 Bft) O-SO 112 4,8 C 9,0 C 0,0 km/h (0 Bft)
08.01.2014 11:45 7,0 C 86 % 1025,1 hPa 0,0 l/m 0,0 km/h (0 Bft) O-SO 112 4,8 C 9,0 C 0,0 km/h (0 Bft)
08.01.2014 11:50 7,3 C 86 % 1025,1 hPa 0,0 l/m 0,0 km/h (0 Bft) O-SO 112 5,1 C 9,2 C 0,0 km/h (0 Bft)
08.01.2014 11:55 7,5 C 86 % 1025,1 hPa 0,0 l/m 0,5 km/h (0 Bft) W 270 5,3 C 9,5 C 5,5 km/h (1 Bft)
08.01.2014 12:00 7,5 C 86 % 1025,1 hPa 0,0 l/m 1,1 km/h (1 Bft) SW 225 5,3 C 9,8 C 0,0 km/h (0 Bft)
08.01.2014 12:05 7,8 C 85 % 1024,8 hPa 0,0 l/m 1,1 km/h (1 Bft) O-SO 112 5,4 C 9,9 C 0,0 km/h (0 Bft)
08.01.2014 12:10 8,0 C 85 % 1024,8 hPa 0,0 l/m 1,4 km/h (1 Bft) SO 135 5,6 C 10,1 C 1,8 km/h (1 Bft)
08.01.2014 12:15 7,9 C 85 % 1024,8 hPa 0,0 l/m 1,3 km/h (1 Bft) S 180 5,5 C 10,2 C 0,0 km/h (0 Bft)
08.01.2014 12:20 8,1 C 85 % 1024,8 hPa 0,0 l/m 0,3 km/h (0 Bft) O-SO 112 5,7 C 10,3 C 3,7 km/h (1 Bft)
08.01.2014 12:25 8,4 C 85 % 1024,6 hPa 0,0 l/m 0,2 km/h (0 Bft) O-SO 112 6,0 C 10,3 C 0,0 km/h (0 Bft)
08.01.2014 12:30 8,6 C 84 % 1024,6 hPa 0,0 l/m 0,3 km/h (0 Bft) O-SO 112 6,1 C 10,4 C 2,9 km/h (1 Bft)
08.01.2014 12:35 8,9 C 84 % 1024,6 hPa 0,0 l/m 1,0 km/h (0 Bft) S 180 6,3 C 10,5 C 7,1 km/h (2 Bft)
08.01.2014 12:40 9,7 C 79 % 1024,6 hPa 0,0 l/m 3,4 km/h (1 Bft) S-SO 157 6,2 C 10,9 C 0,0 km/h (0 Bft)
08.01.2014 12:45 9,4 C 80 % 1024,4 hPa 0,0 l/m 4,3 km/h (1 Bft) S-SW 202 6,1 C 11,1 C 6,0 km/h (2 Bft)
08.01.2014 12:50 8,9 C 80 % 1024,4 hPa 0,0 l/m 3,1 km/h (1 Bft) S-SO 157 5,6 C 11,3 C 4,5 km/h (1 Bft)
08.01.2014 12:55 8,9 C 80 % 1024,4 hPa 0,0 l/m 3,1 km/h (1 Bft) S 180 5,6 C 11,5 C 2,6 km/h (1 Bft)
08.01.2014 13:00 9,1 C 79 % 1024,4 hPa 0,0 l/m 2,6 km/h (1 Bft) SW 225 5,7 C 11,5 C 3,4 km/h (1 Bft)
08.01.2014 13:05 9,0 C 79 % 1024,5 hPa 0,0 l/m 2,4 km/h (1 Bft) S 180 5,6 C 11,5 C 3,1 km/h (1 Bft)
08.01.2014 13:10 9,2 C 78 % 1024,5 hPa 0,0 l/m 2,6 km/h (1 Bft) S-SW 202 5,6 C 11,5 C 3,9 km/h (1 Bft)
08.01.2014 13:15 9,2 C 78 % 1024,5 hPa 0,0 l/m 2,1 km/h (1 Bft) S-SO 157 5,6 C 11,6 C 0,0 km/h (0 Bft)
08.01.2014 13:20 9,4 C 76 % 1024,5 hPa 0,0 l/m 1,1 km/h (1 Bft) S-SW 202 5,4 C 11,5 C 0,0 km/h (0 Bft)
08.01.2014 13:25 9,5 C 76 % 1024,2 hPa 0,0 l/m 0,3 km/h (0 Bft) S-SW 202 5,5 C 11,5 C 0,0 km/h (0 Bft)
08.01.2014 13:30 9,6 C 75 % 1024,2 hPa 0,0 l/m 0,6 km/h (0 Bft) SO 135 5,4 C 11,4 C 2,6 km/h (1 Bft)
08.01.2014 13:35 9,6 C 75 % 1024,2 hPa 0,0 l/m 0,8 km/h (0 Bft) SO 135 5,4 C 11,4 C 0,0 km/h (0 Bft)
08.01.2014 13:40 9,6 C 74 % 1024,2 hPa 0,0 l/m 0,3 km/h (0 Bft) SO 135 5,2 C 11,5 C 0,0 km/h (0 Bft)
08.01.2014 13:45 10,1 C 74 % 1023,9 hPa 0,0 l/m 1,1 km/h (1 Bft) SO 135 5,7 C 11,7 C 2,9 km/h (1 Bft)
08.01.2014 13:50 10,3 C 71 % 1023,9 hPa 0,0 l/m 2,1 km/h (1 Bft) SO 135 5,3 C 12,6 C 0,0 km/h (0 Bft)
08.01.2014 13:55 10,2 C 71 % 1023,9 hPa 0,0 l/m 1,3 km/h (1 Bft) SO 135 5,2 C 13,1 C 0,0 km/h (0 Bft)
08.01.2014 14:00 10,2 C 71 % 1023,9 hPa 0,0 l/m 0,0 km/h (0 Bft) SO 135 5,2 C 13,7 C 0,0 km/h (0 Bft)
08.01.2014 14:05 10,3 C 71 % 1023,9 hPa 0,0 l/m 0,0 km/h (0 Bft) SO 135 5,3 C 13,9 C 0,0 km/h (0 Bft)
08.01.2014 14:10 10,2 C 70 % 1023,9 hPa 0,0 l/m 0,5 km/h (0 Bft) SO 135 5,0 C 14,0 C 1,9 km/h (1 Bft)
08.01.2014 14:15 10,3 C 70 % 1023,9 hPa 0,0 l/m 0,6 km/h (0 Bft) SO 135 5,1 C 13,7 C 0,0 km/h (0 Bft)
08.01.2014 14:20 10,4 C 69 % 1023,9 hPa 0,0 l/m 0,5 km/h (0 Bft) SO 135 5,0 C 13,8 C 0,0 km/h (0 Bft)
08.01.2014 14:25 10,5 C 69 % 1024,1 hPa 0,0 l/m 0,5 km/h (0 Bft) SO 135 5,1 C 14,0 C 2,1 km/h (1 Bft)
08.01.2014 14:30 10,3 C 69 % 1024,1 hPa 0,0 l/m 0,8 km/h (0 Bft) SO 135 4,9 C 13,7 C 1,9 km/h (1 Bft)
08.01.2014 14:35 10,4 C 68 % 1024,1 hPa 0,0 l/m 1,6 km/h (1 Bft) SO 135 4,8 C 13,3 C 1,9 km/h (1 Bft)
08.01.2014 14:40 10,3 C 68 % 1024,1 hPa 0,0 l/m 1,9 km/h (1 Bft) NO 45 4,7 C 12,8 C 2,6 km/h (1 Bft)
08.01.2014 14:45 10,1 C 68 % 1023,8 hPa 0,0 l/m 1,1 km/h (1 Bft) NO 45 4,5 C 12,5 C 0,0 km/h (0 Bft)
08.01.2014 14:50 10,1 C 69 % 1023,8 hPa 0,0 l/m 1,0 km/h (0 Bft) O-NO 67 4,7 C 12,3 C 1,6 km/h (1 Bft)
08.01.2014 14:55 9,9 C 69 % 1023,8 hPa 0,0 l/m 1,0 km/h (0 Bft) NO 45 4,5 C 12,2 C 2,3 km/h (1 Bft)
08.01.2014 15:00 10,1 C 69 % 1023,8 hPa 0,0 l/m 2,3 km/h (1 Bft) O 90 4,7 C 11,8 C 4,7 km/h (1 Bft)
08.01.2014 15:05 10,0 C 69 % 1023,6 hPa 0,0 l/m 3,5 km/h (1 Bft) O-NO 67 4,6 C 11,6 C 4,2 km/h (1 Bft)
08.01.2014 15:10 10,0 C 69 % 1023,6 hPa 0,0 l/m 4,2 km/h (1 Bft) O-NO 67 4,6 C 11,5 C 3,1 km/h (1 Bft)
08.01.2014 15:15 9,9 C 70 % 1023,6 hPa 0,0 l/m 3,7 km/h (1 Bft) O 90 4,7 C 11,3 C 3,1 km/h (1 Bft)
08.01.2014 15:20 9,8 C 70 % 1023,6 hPa 0,0 l/m 3,2 km/h (1 Bft) O-NO 67 4,6 C 11,0 C 3,7 km/h (1 Bft)
08.01.2014 15:25 9,7 C 70 % 1023,4 hPa 0,0 l/m 3,2 km/h (1 Bft) O-NO 67 4,5 C 10,8 C 2,9 km/h (1 Bft)
08.01.2014 15:30 9,3 C 71 % 1023,4 hPa 0,0 l/m 1,6 km/h (1 Bft) NO 45 4,3 C 10,5 C 0,0 km/h (0 Bft)
08.01.2014 15:35 8,7 C 70 % 1023,4 hPa 0,0 l/m 0,3 km/h (0 Bft) O 90 3,5 C 10,2 C 0,0 km/h (0 Bft)
08.01.2014 15:40 8,1 C 72 % 1023,4 hPa 0,0 l/m 0,0 km/h (0 Bft) O 90 3,4 C 9,8 C 0,0 km/h (0 Bft)
08.01.2014 15:45 7,6 C 72 % 1023,5 hPa 0,0 l/m 0,0 km/h (0 Bft) O 90 2,9 C 9,5 C 0,0 km/h (0 Bft)
08.01.2014 15:50 8,2 C 74 % 1023,5 hPa 0,0 l/m 0,6 km/h (0 Bft) O-NO 67 3,8 C 9,2 C 1,8 km/h (1 Bft)
08.01.2014 15:55 8,1 C 73 % 1023,5 hPa 0,0 l/m 1,0 km/h (0 Bft) NO 45 3,6 C 9,0 C 0,0 km/h (0 Bft)
08.01.2014 16:00 8,0 C 73 % 1023,5 hPa 0,0 l/m 0,8 km/h (0 Bft) O-NO 67 3,5 C 8,7 C 2,4 km/h (1 Bft)
08.01.2014 16:05 8,2 C 72 % 1023,4 hPa 0,0 l/m 1,0 km/h (0 Bft) O-NO 67 3,5 C 8,6 C 0,0 km/h (0 Bft)
08.01.2014 16:10 8,1 C 71 % 1023,4 hPa 0,0 l/m 1,4 km/h (1 Bft) O 90 3,2 C 8,2 C 1,8 km/h (1 Bft)
08.01.2014 16:15 7,9 C 71 % 1023,4 hPa 0,0 l/m 1,4 km/h (1 Bft) O-NO 67 3,0 C 7,9 C 3,9 km/h (1 Bft)
08.01.2014 16:20 6,6 C 71 % 1023,4 hPa 0,0 l/m 1,3 km/h (1 Bft) O 90 1,7 C 7,5 C 2,7 km/h (1 Bft)
08.01.2014 16:25 7,1 C 74 % 1023,1 hPa 0,0 l/m 1,4 km/h (1 Bft) O 90 2,8 C 7,1 C 3,9 km/h (1 Bft)
08.01.2014 16:30 7,1 C 74 % 1023,1 hPa 0,0 l/m 1,9 km/h (1 Bft) O 90 2,8 C 6,6 C 1,6 km/h (1 Bft)
08.01.2014 16:35 6,5 C 74 % 1023,1 hPa 0,0 l/m 1,8 km/h (1 Bft) O 90 2,2 C 6,3 C 2,9 km/h (1 Bft)
08.01.2014 16:40 6,1 C 75 % 1023,1 hPa 0,0 l/m 0,8 km/h (0 Bft) O 90 2,0 C 6,1 C 0,0 km/h (0 Bft)
08.01.2014 16:45 5,5 C 77 % 1023,4 hPa 0,0 l/m 0,5 km/h (0 Bft) O-NO 67 1,8 C 5,8 C 0,0 km/h (0 Bft)
08.01.2014 16:50 5,2 C 78 % 1023,4 hPa 0,0 l/m 0,2 km/h (0 Bft) O-NO 67 1,7 C 5,4 C 2,4 km/h (1 Bft)
08.01.2014 16:55 6,4 C 79 % 1023,4 hPa 0,0 l/m 1,9 km/h (1 Bft) NO 45 3,0 C 5,2 C 7,2 km/h (2 Bft)
08.01.2014 17:00 6,5 C 78 % 1023,4 hPa 0,0 l/m 4,5 km/h (1 Bft) O 90 2,9 C 4,8 C 1,6 km/h (1 Bft)
08.01.2014 17:05 5,1 C 77 % 1023,3 hPa 0,0 l/m 3,5 km/h (1 Bft) O-SO 112 1,4 C 5,1 C 0,0 km/h (0 Bft)
08.01.2014 17:08 5,5 C 79 % 1023,3 hPa 0,0 l/m 1,8 km/h (1 Bft) O 90 2,2 C 4,7 C 6,1 km/h (2 Bft)
08.01.2014 17:10 5,5 C 79 % 1023,3 hPa 0,0 l/m 1,8 km/h (1 Bft) O 90 2,2 C 4,7 C 6,1 km/h (2 Bft)
08.01.2014 17:15 5,2 C 79 % 1023,3 hPa 0,0 l/m 1,9 km/h (1 Bft) O-NO 67 1,9 C 4,5 C 0,0 km/h (0 Bft)
08.01.2014 17:20 5,6 C 81 % 1023,3 hPa 0,0 l/m 3,2 km/h (1 Bft) O-NO 67 2,6 C 4,1 C 7,6 km/h (2 Bft)
08.01.2014 17:25 5,8 C 81 % 1023,2 hPa 0,0 l/m 4,0 km/h (1 Bft) O 90 2,8 C 4,2 C 2,6 km/h (1 Bft)
08.01.2014 17:30 5,7 C 82 % 1023,2 hPa 0,0 l/m 5,1 km/h (1 Bft) NO 45 2,9 C 3,7 C 6,3 km/h (2 Bft)
08.01.2014 17:35 5,7 C 82 % 1023,2 hPa 0,0 l/m 5,1 km/h (1 Bft) O-NO 67 2,9 C 4,0 C 5,3 km/h (1 Bft)
08.01.2014 17:40 5,6 C 82 % 1023,2 hPa 0,0 l/m 5,5 km/h (1 Bft) O-NO 67 2,8 C 4,2 C 3,9 km/h (1 Bft)
08.01.2014 17:45 5,5 C 82 % 1023,0 hPa 0,0 l/m 5,1 km/h (1 Bft) NO 45 2,7 C 4,0 C 6,3 km/h (2 Bft)
08.01.2014 17:50 5,2 C 82 % 1023,0 hPa 0,0 l/m 5,1 km/h (1 Bft) O-SO 112 2,4 C 3,7 C 6,4 km/h (2 Bft)
08.01.2014 17:55 5,0 C 83 % 1023,0 hPa 0,0 l/m 5,5 km/h (1 Bft) O-NO 67 2,4 C 3,3 C 5,8 km/h (2 Bft)
08.01.2014 18:00 5,2 C 83 % 1023,0 hPa 0,0 l/m 4,0 km/h (1 Bft) NO 45 2,6 C 4,1 C 2,1 km/h (1 Bft)
08.01.2014 18:05 4,4 C 83 % 1022,9 hPa 0,0 l/m 2,1 km/h (1 Bft) O 90 1,8 C 4,4 C 0,0 km/h (0 Bft)
08.01.2014 18:10 3,8 C 83 % 1022,9 hPa 0,0 l/m 0,2 km/h (0 Bft) O 90 1,2 C 3,9 C 0,0 km/h (0 Bft)
08.01.2014 18:15 3,7 C 83 % 1022,9 hPa 0,0 l/m 0,0 km/h (0 Bft) O-SO 112 1,1 C 3,6 C 0,0 km/h (0 Bft)
08.01.2014 18:20 3,6 C 84 % 1022,9 hPa 0,0 l/m 0,2 km/h (0 Bft) O 90 1,2 C 3,5 C 0,0 km/h (0 Bft)
08.01.2014 18:25 3,6 C 84 % 1022,6 hPa 0,0 l/m 0,2 km/h (0 Bft) SO 135 1,2 C 3,5 C 0,0 km/h (0 Bft)
08.01.2014 18:30 3,2 C 84 % 1022,6 hPa 0,0 l/m 0,2 km/h (0 Bft) S 180 0,8 C 3,5 C 0,0 km/h (0 Bft)
08.01.2014 18:35 3,0 C 84 % 1022,6 hPa 0,0 l/m 0,2 km/h (0 Bft) O-SO 112 0,6 C 3,4 C 0,0 km/h (0 Bft)
08.01.2014 18:40 2,6 C 85 % 1022,6 hPa 0,0 l/m 0,0 km/h (0 Bft) O-SO 112 0,3 C 3,0 C 0,0 km/h (0 Bft)
08.01.2014 18:45 2,9 C 86 % 1022,7 hPa 0,0 l/m 0,2 km/h (0 Bft) O-SO 112 0,8 C 2,8 C 0,0 km/h (0 Bft)
08.01.2014 18:50 2,6 C 86 % 1022,7 hPa 0,0 l/m 0,2 km/h (0 Bft) O-SO 112 0,5 C 2,7 C 0,0 km/h (0 Bft)
08.01.2014 18:55 2,5 C 86 % 1022,7 hPa 0,0 l/m 0,0 km/h (0 Bft) SO 135 0,4 C 2,7 C 0,0 km/h (0 Bft)
08.01.2014 19:00 2,3 C 86 % 1022,7 hPa 0,0 l/m 0,0 km/h (0 Bft) O 90 0,2 C 2,5 C 0,0 km/h (0 Bft)
08.01.2014 19:05 2,1 C 86 % 1022,4 hPa 0,0 l/m 0,0 km/h (0 Bft) S-SO 157 0,0 C 2,4 C 0,0 km/h (0 Bft)
08.01.2014 19:10 2,0 C 86 % 1022,4 hPa 0,0 l/m 0,3 km/h (0 Bft) S 180 -0,1 C 2,2 C 1,6 km/h (1 Bft)
08.01.2014 19:15 2,0 C 87 % 1022,4 hPa 0,0 l/m 0,3 km/h (0 Bft) O 90 0,1 C 2,2 C 0,0 km/h (0 Bft)
08.01.2014 19:20 1,9 C 88 % 1022,4 hPa 0,0 l/m 0,0 km/h (0 Bft) W-SW 247 0,1 C 2,0 C 0,0 km/h (0 Bft)
08.01.2014 19:25 1,9 C 88 % 1022,7 hPa 0,0 l/m 0,0 km/h (0 Bft) W-SW 247 0,1 C 1,9 C 0,0 km/h (0 Bft)
08.01.2014 19:30 2,0 C 88 % 1022,7 hPa 0,0 l/m 0,2 km/h (0 Bft) W-SW 247 0,2 C 1,8 C 2,3 km/h (1 Bft)
08.01.2014 19:35 2,0 C 88 % 1022,7 hPa 0,0 l/m 0,3 km/h (0 Bft) O 90 0,2 C 1,9 C 0,0 km/h (0 Bft)
08.01.2014 19:40 1,8 C 88 % 1022,7 hPa 0,0 l/m 0,2 km/h (0 Bft) O 90 0,0 C 1,9 C 0,0 km/h (0 Bft)
08.01.2014 19:45 2,0 C 88 % 1022,7 hPa 0,0 l/m 0,2 km/h (0 Bft) O-SO 112 0,2 C 1,9 C 4,0 km/h (1 Bft)
08.01.2014 19:50 1,7 C 89 % 1022,7 hPa 0,0 l/m 0,3 km/h (0 Bft) W 270 0,1 C 1,9 C 0,0 km/h (0 Bft)
08.01.2014 19:55 1,9 C 89 % 1022,7 hPa 0,0 l/m 0,6 km/h (0 Bft) SO 135 0,3 C 1,8 C 0,0 km/h (0 Bft)
08.01.2014 20:00 1,7 C 89 % 1022,7 hPa 0,0 l/m 0,3 km/h (0 Bft) W-SW 247 0,1 C 1,8 C 0,0 km/h (0 Bft)
08.01.2014 20:05 1,6 C 89 % 1022,7 hPa 0,0 l/m 0,0 km/h (0 Bft) O-SO 112 -0,0 C 1,7 C 0,0 km/h (0 Bft)
08.01.2014 20:10 1,5 C 89 % 1022,7 hPa 0,0 l/m 0,2 km/h (0 Bft) W-NW 292 -0,1 C 1,8 C 0,0 km/h (0 Bft)
08.01.2014 20:15 1,5 C 89 % 1022,7 hPa 0,0 l/m 0,3 km/h (0 Bft) N-NO 22 -0,1 C 1,7 C 0,0 km/h (0 Bft)
08.01.2014 20:20 1,5 C 89 % 1022,7 hPa 0,0 l/m 0,2 km/h (0 Bft) W 270 -0,1 C 1,7 C 0,0 km/h (0 Bft)
08.01.2014 20:25 1,6 C 89 % 1022,5 hPa 0,0 l/m 0,5 km/h (0 Bft) W-SW 247 -0,0 C 1,7 C 2,6 km/h (1 Bft)
08.01.2014 20:30 1,7 C 90 % 1022,5 hPa 0,0 l/m 0,5 km/h (0 Bft) N-NW 337 0,2 C 1,6 C 0,0 km/h (0 Bft)
08.01.2014 20:35 1,5 C 90 % 1022,5 hPa 0,0 l/m 0,2 km/h (0 Bft) W-SW 247 0,0 C 1,6 C 0,0 km/h (0 Bft)
08.01.2014 20:40 1,4 C 90 % 1022,5 hPa 0,0 l/m 0,2 km/h (0 Bft) S 180 -0,1 C 1,4 C 0,0 km/h (0 Bft)
08.01.2014 20:45 1,6 C 91 % 1022,6 hPa 0,0 l/m 0,6 km/h (0 Bft) O 90 0,3 C 1,3 C 0,0 km/h (0 Bft)
08.01.2014 20:50 1,7 C 91 % 1022,6 hPa 0,0 l/m 0,5 km/h (0 Bft) SO 135 0,4 C 1,5 C 2,1 km/h (1 Bft)
08.01.2014 20:55 1,3 C 90 % 1022,6 hPa 0,0 l/m 0,3 km/h (0 Bft) O 90 -0,2 C 1,4 C 0,0 km/h (0 Bft)
08.01.2014 21:00 1,2 C 90 % 1022,6 hPa 0,0 l/m 0,5 km/h (0 Bft) O-NO 67 -0,3 C 1,1 C 3,2 km/h (1 Bft)
08.01.2014 21:05 1,0 C 90 % 1022,4 hPa 0,0 l/m 0,3 km/h (0 Bft) O-NO 67 -0,5 C 1,1 C 0,0 km/h (0 Bft)
08.01.2014 21:10 1,5 C 91 % 1022,4 hPa 0,0 l/m 0,8 km/h (0 Bft) NO 45 0,2 C 1,0 C 0,0 km/h (0 Bft)
08.01.2014 21:15 1,4 C 91 % 1022,4 hPa 0,0 l/m 0,6 km/h (0 Bft) NO 45 0,1 C 1,1 C 0,0 km/h (0 Bft)
08.01.2014 21:20 1,2 C 91 % 1022,4 hPa 0,0 l/m 0,2 km/h (0 Bft) NO 45 -0,1 C 1,2 C 2,6 km/h (1 Bft)
08.01.2014 21:25 1,1 C 91 % 1022,2 hPa 0,0 l/m 0,2 km/h (0 Bft) NO 45 -0,2 C 1,2 C 0,0 km/h (0 Bft)
08.01.2014 21:30 1,5 C 92 % 1022,2 hPa 0,0 l/m 0,5 km/h (0 Bft) NO 45 0,3 C 1,2 C 1,9 km/h (1 Bft)
08.01.2014 21:35 1,6 C 92 % 1022,2 hPa 0,0 l/m 0,3 km/h (0 Bft) N-NO 22 0,4 C 1,3 C 0,0 km/h (0 Bft)
08.01.2014 21:40 1,5 C 92 % 1022,2 hPa 0,0 l/m 0,2 km/h (0 Bft) NO 45 0,3 C 1,2 C 0,0 km/h (0 Bft)
08.01.2014 21:45 1,2 C 92 % 1021,9 hPa 0,0 l/m 0,2 km/h (0 Bft) NO 45 0,0 C 1,1 C 0,0 km/h (0 Bft)
08.01.2014 21:50 1,0 C 92 % 1021,9 hPa 0,0 l/m 0,0 km/h (0 Bft) NO 45 -0,2 C 1,0 C 0,0 km/h (0 Bft)
08.01.2014 21:55 1,0 C 92 % 1021,9 hPa 0,0 l/m 0,0 km/h (0 Bft) N-NO 22 -0,2 C 1,1 C 0,0 km/h (0 Bft)
08.01.2014 22:00 1,2 C 92 % 1021,9 hPa 0,0 l/m 0,0 km/h (0 Bft) N-NO 22 0,0 C 1,1 C 2,1 km/h (1 Bft)
08.01.2014 22:05 1,2 C 92 % 1021,9 hPa 0,0 l/m 0,5 km/h (0 Bft) N-NO 22 0,0 C 1,2 C 0,0 km/h (0 Bft)
08.01.2014 22:10 1,5 C 92 % 1021,9 hPa 0,0 l/m 0,5 km/h (0 Bft) N-NO 22 0,3 C 1,2 C 0,0 km/h (0 Bft)
08.01.2014 22:15 1,4 C 93 % 1021,9 hPa 0,0 l/m 0,0 km/h (0 Bft) NO 45 0,4 C 1,3 C 0,0 km/h (0 Bft)
08.01.2014 22:20 1,5 C 93 % 1021,9 hPa 0,0 l/m 0,2 km/h (0 Bft) N-NO 22 0,5 C 1,4 C 0,0 km/h (0 Bft)
08.01.2014 22:25 1,5 C 93 % 1021,6 hPa 0,0 l/m 0,3 km/h (0 Bft) W-NW 292 0,5 C 1,5 C 0,0 km/h (0 Bft)
08.01.2014 22:30 1,6 C 93 % 1021,6 hPa 0,0 l/m 0,5 km/h (0 Bft) N-NO 22 0,6 C 1,5 C 0,0 km/h (0 Bft)
08.01.2014 22:35 1,5 C 92 % 1021,6 hPa 0,0 l/m 0,3 km/h (0 Bft) NW 315 0,3 C 1,6 C 0,0 km/h (0 Bft)
08.01.2014 22:40 1,5 C 92 % 1021,6 hPa 0,0 l/m 0,2 km/h (0 Bft) O 90 0,3 C 1,7 C 0,0 km/h (0 Bft)
08.01.2014 22:45 1,5 C 92 % 1021,6 hPa 0,0 l/m 0,2 km/h (0 Bft) O 90 0,3 C 1,7 C 0,0 km/h (0 Bft)
08.01.2014 22:50 1,7 C 92 % 1021,6 hPa 0,0 l/m 0,3 km/h (0 Bft) N-NO 22 0,5 C 1,8 C 0,0 km/h (0 Bft)
08.01.2014 22:55 1,5 C 92 % 1021,6 hPa 0,0 l/m 0,3 km/h (0 Bft) O 90 0,3 C 1,8 C 0,0 km/h (0 Bft)
08.01.2014 23:00 1,9 C 92 % 1021,6 hPa 0,0 l/m 0,3 km/h (0 Bft) O-SO 112 0,7 C 1,8 C 0,0 km/h (0 Bft)
08.01.2014 23:05 1,8 C 92 % 1021,2 hPa 0,0 l/m 0,3 km/h (0 Bft) O 90 0,6 C 1,8 C 0,0 km/h (0 Bft)
08.01.2014 23:08 1,5 C 92 % 1021,2 hPa 0,0 l/m 0,0 km/h (0 Bft) O 90 0,3 C 1,8 C 0,0 km/h (0 Bft)
08.01.2014 23:10 1,5 C 92 % 1021,2 hPa 0,0 l/m 0,0 km/h (0 Bft) O 90 0,3 C 1,8 C 0,0 km/h (0 Bft)
08.01.2014 23:15 1,4 C 92 % 1021,2 hPa 0,0 l/m 0,0 km/h (0 Bft) O 90 0,2 C 1,7 C 0,0 km/h (0 Bft)
08.01.2014 23:20 1,2 C 92 % 1021,2 hPa 0,0 l/m 0,0 km/h (0 Bft) O 90 0,0 C 1,6 C 0,0 km/h (0 Bft)
08.01.2014 23:25 1,8 C 92 % 1021,2 hPa 0,0 l/m 0,2 km/h (0 Bft) NO 45 0,6 C 1,6 C 0,0 km/h (0 Bft)
08.01.2014 23:30 1,6 C 92 % 1021,2 hPa 0,0 l/m 0,2 km/h (0 Bft) NO 45 0,4 C 1,8 C 0,0 km/h (0 Bft)
08.01.2014 23:35 1,6 C 92 % 1021,2 hPa 0,0 l/m 0,0 km/h (0 Bft) NO 45 0,4 C 1,8 C 0,0 km/h (0 Bft)
08.01.2014 23:40 1,5 C 92 % 1021,2 hPa 0,0 l/m 0,0 km/h (0 Bft) O 90 0,3 C 1,8 C 0,0 km/h (0 Bft)
08.01.2014 23:45 1,5 C 92 % 1021,1 hPa 0,0 l/m 0,0 km/h (0 Bft) NO 45 0,3 C 1,8 C 0,0 km/h (0 Bft)
08.01.2014 23:50 1,6 C 92 % 1021,1 hPa 0,0 l/m 0,0 km/h (0 Bft) NO 45 0,4 C 1,8 C 0,0 km/h (0 Bft)
08.01.2014 23:55 1,6 C 92 % 1021,1 hPa 0,0 l/m 0,0 km/h (0 Bft) NO 45 0,4 C 1,8 C 0,0 km/h (0 Bft)
_ Min-Zeit 02:35 14:45 00:00 - 23:55 - - 02:35 02:35 23:55
Minimum _ 0,3 C 68 % 1020,8 hPa - 0,0 km/h (0 Bft) - - -1,9 C 0,5 C 0,0 km/h (0 Bft)
_ Max-Zeit 14:25 22:30 11:20 23:55 05:40 - - 12:35 14:25 05:30
Maximum _ 10,5 C 93 % 1025,2 hPa 0,0 l/m 6,9 km/h
O-NO (2 Bft)
- - 6,3 C 14,0 C 13,5 km/h
O (3 Bft)
Durchschnitt _ 4,2 C 83 % 1023,0 hPa #0,0 l/m 1,2 km/h (1 Bft) O - 1,6 C 4,7 C 1,5 km/h (1 Bft)